| time (UTC) | temp F | wind direction | speed MPH | gust MPH | rain 1hr in | rain 24hr in | rain mn in | humidity % | barometer mb |
| 20260831131811 | 92 | 232 | 2.0 | 8.0 | 0.00 | 0.00 | 0.00 | 39 | 991.0 |
| 20260831130911 | 92 | 125 | 2.0 | 9.0 | 0.00 | 0.00 | 0.00 | 39 | 991.1 |
| 20260831130011 | 93 | 117 | 3.0 | 8.0 | 0.00 | 0.00 | 0.00 | 38 | 991.1 |
| 20260831125111 | 92 | 101 | 4.0 | 9.0 | 0.00 | 0.00 | 0.00 | 39 | 991.1 |
| 20260831123311 | 96 | 119 | 2.0 | 7.0 | 0.00 | 0.00 | 0.00 | 36 | 991.3 |
| 20260831122411 | 96 | 90 | 2.0 | 9.0 | 0.00 | 0.00 | 0.00 | 32 | 991.5 |
| 20260831121511 | 96 | 258 | 2.0 | 6.0 | 0.00 | 0.00 | 0.00 | 33 | 991.4 |
| 20260831120611 | 96 | 230 | 2.0 | 6.0 | 0.00 | 0.00 | 0.00 | 33 | 991.4 |
| 20260831115711 | 96 | 235 | 1.0 | 9.0 | 0.00 | 0.00 | 0.00 | 33 | 991.4 |
| 20260831114811 | 95 | 269 | 2.0 | 9.0 | 0.00 | 0.00 | 0.00 | 34 | 991.4 |
| 20260831113911 | 95 | 107 | 2.0 | 9.0 | 0.00 | 0.00 | 0.00 | 34 | 991.6 |
| 20260831113011 | 96 | 101 | 2.0 | 7.0 | 0.00 | 0.00 | 0.00 | 34 | 991.6 |
| 20260831112111 | 95 | 90 | 2.0 | 13.0 | 0.00 | 0.00 | 0.00 | 35 | 991.7 |
| 20260831111211 | 94 | 98 | 2.0 | 11.0 | 0.00 | 0.00 | 0.00 | 35 | 991.8 |
| 20260831110311 | 94 | 104 | 4.0 | 9.0 | 0.00 | 0.00 | 0.00 | 35 | 991.9 |
| 20260831105410 | 94 | 161 | 3.0 | 7.0 | 0.00 | 0.00 | 0.00 | 35 | 991.9 |
| 20260831104510 | 94 | 247 | 2.0 | 6.0 | 0.00 | 0.00 | 0.00 | 34 | 992.1 |
| 20260831102711 | 95 | 85 | 1.0 | 9.0 | 0.00 | 0.00 | 0.00 | 34 | 992.3 |
| 20260831101811 | 93 | 169 | 2.0 | 8.0 | 0.00 | 0.00 | 0.00 | 36 | 992.4 |
| 20260831100010 | 93 | 83 | 3.0 | 9.0 | 0.00 | 0.00 | 0.00 | 36 | 992.4 |
| 20260831094211 | 92 | 328 | 2.0 | 6.0 | 0.00 | 0.00 | 0.00 | 37 | 992.4 |
| 20260831093311 | 92 | 357 | 2.0 | 8.0 | 0.00 | 0.00 | 0.00 | 36 | 992.5 |
| 20260831092411 | 93 | 283 | 3.0 | 6.0 | 0.00 | 0.00 | 0.00 | 36 | 992.6 |
| 20260831090610 | 92 | 236 | 2.0 | 6.0 | 0.00 | 0.00 | 0.00 | 37 | 992.7 |
| 20260831085711 | 92 | 275 | 2.0 | 4.0 | 0.00 | 0.00 | 0.00 | 37 | 992.9 |
| 20260831084811 | 91 | 213 | 1.0 | 6.0 | 0.00 | 0.00 | 0.00 | 39 | 993.0 |
| 20260831082111 | 90 | 228 | 2.0 | 4.0 | 0.00 | 0.00 | 0.00 | 40 | 993.0 |
| 20260831081211 | 90 | 222 | 3.0 | 4.0 | 0.00 | 0.00 | 0.00 | 40 | 993.1 |
| 20260831080311 | 89 | 241 | 2.0 | 7.0 | 0.00 | 0.00 | 0.00 | 41 | 993.0 |
| 20260831075410 | 88 | 278 | 4.0 | 7.0 | 0.00 | 0.00 | 0.00 | 42 | 993.0 |
| 20260831074511 | 88 | 277 | 2.0 | 9.0 | 0.00 | 0.00 | 0.00 | 42 | 992.8 |
| 20260831073610 | 88 | 122 | 3.0 | 9.0 | 0.00 | 0.00 | 0.00 | 43 | 992.8 |
| 20260831072710 | 88 | 231 | 2.0 | 6.0 | 0.00 | 0.00 | 0.00 | 43 | 992.8 |
| 20260831071811 | 87 | 247 | 3.0 | 6.0 | 0.00 | 0.00 | 0.00 | 43 | 992.7 |
| 20260831070911 | 86 | 274 | 2.0 | 6.0 | 0.00 | 0.00 | 0.00 | 45 | 992.6 |
| 20260831070010 | 86 | 282 | 2.0 | 6.0 | 0.00 | 0.00 | 0.00 | 45 | 992.7 |
| 20260831065111 | 86 | 271 | 2.0 | 6.0 | 0.00 | 0.00 | 0.00 | 45 | 992.7 |
| 20260831061511 | 85 | 266 | 1.0 | 4.0 | 0.00 | 0.00 | 0.00 | 44 | 993.0 |
| 20260831060611 | 85 | 255 | 2.0 | 4.0 | 0.00 | 0.00 | 0.00 | 44 | 992.9 |
| 20260831054811 | 83 | 257 | 2.0 | 4.0 | 0.00 | 0.00 | 0.00 | 48 | 992.9 |
| 20260831053911 | 82 | 294 | 1.0 | 4.0 | 0.00 | 0.00 | 0.00 | 50 | 992.9 |
| 20260831051211 | 81 | 316 | 2.0 | 4.0 | 0.00 | 0.00 | 0.00 | 50 | 993.0 |
| 20260831050311 | 80 | 263 | 2.0 | 4.0 | 0.00 | 0.00 | 0.00 | 50 | 992.8 |
| 20260831045411 | 79 | 249 | 2.0 | 4.0 | 0.00 | 0.00 | 0.00 | 49 | 992.7 |
| 20260831044511 | 79 | 243 | 1.0 | 4.0 | 0.00 | 0.00 | 0.00 | 49 | 992.7 |
| 20260831043611 | 79 | 259 | 1.0 | 2.0 | 0.00 | 0.00 | 0.00 | 49 | 992.7 |
| 20260831040010 | 78 | 262 | 2.0 | 4.0 | 0.00 | 0.00 | 0.00 | 49 | 992.4 |
| 20260831034210 | 79 | 269 | 1.0 | 4.0 | 0.00 | 0.00 | 0.00 | 48 | 992.4 |
| 20260831033311 | 78 | 276 | 1.0 | 4.0 | 0.00 | 0.00 | 0.00 | 49 | 992.4 |
| 20260831032411 | 78 | 292 | 1.0 | 2.0 | 0.00 | 0.00 | 0.00 | 49 | 992.5 |
| 20260831031511 | 78 | 311 | 0.0 | 8.0 | 0.00 | 0.00 | 0.00 | 50 | 992.4 |
| 20260831030611 | 78 | 308 | 2.0 | 7.0 | 0.00 | 0.00 | 0.00 | 49 | 992.4 |
| 20260831023910 | 79 | 186 | 1.0 | 2.0 | 0.00 | 0.00 | 0.00 | 49 | 992.3 |
| 20260831023011 | 79 | 123 | 1.0 | 2.0 | 0.00 | 0.00 | 0.00 | 49 | 992.4 |
| 20260831015411 | 79 | 224 | 1.0 | 2.0 | 0.00 | 0.00 | 0.00 | 49 | 992.2 |
| 20260831014510 | 79 | 274 | 1.0 | 4.0 | 0.00 | 0.00 | 0.00 | 49 | 992.2 |
| 20260831012710 | 79 | 301 | 2.0 | 7.0 | 0.00 | 0.00 | 0.00 | 51 | 992.2 |
| 20260831011811 | 79 | 310 | 1.0 | 4.0 | 0.00 | 0.00 | 0.00 | 52 | 992.1 |
| 20260831010910 | 79 | 314 | 1.0 | 4.0 | 0.00 | 0.00 | 0.00 | 52 | 992.3 |
| 20260831010011 | 79 | 314 | 2.0 | 4.0 | 0.00 | 0.00 | 0.00 | 52 | 992.3 |
| 20260831005111 | 79 | 291 | 2.0 | 4.0 | 0.00 | 0.00 | 0.00 | 52 | 992.3 |
| 20260831004211 | 79 | 261 | 1.0 | 2.0 | 0.00 | 0.00 | 0.00 | 52 | 992.4 |
| 20260831002411 | 80 | 202 | 1.0 | 2.0 | 0.00 | 0.00 | 0.00 | 51 | 992.3 |
| 20260831001511 | 80 | 241 | 1.0 | 2.0 | 0.00 | 0.00 | 0.00 | 52 | 992.4 |
| 20260830235711 | 80 | 248 | 0.0 | 2.0 | 0.00 | 0.00 | 0.00 | 51 | 992.4 |
| 20260830234810 | 80 | 248 | 0.0 | 2.0 | 0.00 | 0.00 | 0.00 | 51 | 992.4 |
| 20260830233911 | 80 | 248 | 0.0 | 2.0 | 0.00 | 0.00 | 0.00 | 51 | 992.5 |
| 20260830233011 | 80 | 245 | 0.0 | 4.0 | 0.00 | 0.00 | 0.00 | 51 | 992.4 |
| 20260830232111 | 80 | 243 | 1.0 | 4.0 | 0.00 | 0.00 | 0.00 | 50 | 992.5 |
| 20260830231211 | 80 | 244 | 0.0 | 4.0 | 0.00 | 0.00 | 0.00 | 50 | 992.5 |
| 20260830230311 | 80 | 316 | 2.0 | 4.0 | 0.00 | 0.00 | 0.00 | 50 | 992.6 |
| 20260830224511 | 81 | 249 | 0.0 | 2.0 | 0.00 | 0.00 | 0.00 | 48 | 992.5 |
| 20260830222710 | 81 | 294 | 1.0 | 2.0 | 0.00 | 0.00 | 0.00 | 47 | 992.7 |
| 20260830220910 | 81 | 296 | 0.0 | 4.0 | 0.00 | 0.00 | 0.00 | 49 | 992.7 |
| 20260830220011 | 80 | 292 | 0.0 | 2.0 | 0.00 | 0.00 | 0.00 | 50 | 992.7 |
| 20260830215111 | 81 | 284 | 0.0 | 4.0 | 0.00 | 0.00 | 0.00 | 50 | 992.7 |
| 20260830214211 | 81 | 270 | 2.0 | 4.0 | 0.00 | 0.00 | 0.00 | 52 | 992.8 |
| 20260830213312 | 81 | 270 | 0.0 | 2.0 | 0.00 | 0.00 | 0.00 | 51 | 992.7 |
| 20260830212411 | 81 | 270 | 0.0 | 2.0 | 0.00 | 0.00 | 0.00 | 49 | 992.7 |
| 20260830205710 | 82 | 318 | 0.0 | 2.0 | 0.00 | 0.00 | 0.00 | 45 | 992.4 |
| 20260830204811 | 82 | 295 | 0.0 | 4.0 | 0.00 | 0.00 | 0.00 | 44 | 992.5 |
| 20260830203911 | 82 | 291 | 0.0 | 4.0 | 0.00 | 0.00 | 0.00 | 44 | 992.5 |
| 20260830203011 | 82 | 263 | 2.0 | 4.0 | 0.00 | 0.00 | 0.00 | 44 | 992.4 |
| 20260830202111 | 82 | 242 | 0.0 | 4.0 | 0.00 | 0.00 | 0.00 | 44 | 992.4 |
| 20260830201211 | 82 | 225 | 0.0 | 2.0 | 0.00 | 0.00 | 0.00 | 44 | 992.3 |
| 20260830200311 | 82 | 194 | 0.0 | 2.0 | 0.00 | 0.00 | 0.00 | 44 | 992.3 |
| 20260830195411 | 82 | 212 | 1.0 | 2.0 | 0.00 | 0.00 | 0.00 | 44 | 992.2 |
| 20260830194510 | 82 | 268 | 0.0 | 2.0 | 0.00 | 0.00 | 0.00 | 44 | 992.2 |
| 20260830193610 | 82 | 293 | 1.0 | 2.0 | 0.00 | 0.00 | 0.00 | 45 | 992.1 |
| 20260830192711 | 82 | 311 | 0.0 | 2.0 | 0.00 | 0.00 | 0.00 | 47 | 992.2 |
| 20260830190911 | 82 | 313 | 0.0 | 6.0 | 0.00 | 0.00 | 0.00 | 46 | 992.0 |
| 20260830190011 | 83 | 302 | 2.0 | 6.0 | 0.00 | 0.00 | 0.00 | 46 | 992.1 |
| 20260830185110 | 83 | 314 | 1.0 | 7.0 | 0.00 | 0.00 | 0.00 | 48 | 992.0 |
| 20260830184211 | 82 | 274 | 2.0 | 4.0 | 0.00 | 0.00 | 0.00 | 56 | 991.9 |
| 20260830183311 | 82 | 226 | 2.0 | 4.0 | 0.00 | 0.00 | 0.00 | 60 | 991.7 |
| 20260830182411 | 82 | 98 | 1.0 | 4.0 | 0.00 | 0.00 | 0.00 | 62 | 991.6 |
| 20260830181510 | 82 | 101 | 2.0 | 4.0 | 0.00 | 0.00 | 0.00 | 62 | 991.7 |
| 20260830180611 | 83 | 104 | 2.0 | 4.0 | 0.00 | 0.00 | 0.00 | 61 | 991.6 |
| 20260830175711 | 83 | 103 | 2.0 | 4.0 | 0.00 | 0.00 | 0.00 | 60 | 991.3 |
| 20260830174811 | 83 | 106 | 2.0 | 4.0 | 0.00 | 0.00 | 0.00 | 60 | 991.2 |
| 20260830173910 | 83 | 221 | 1.0 | 6.0 | 0.00 | 0.00 | 0.00 | 61 | 991.1 |
| 20260830172111 | 82 | 273 | 2.0 | 7.0 | 0.00 | 0.00 | 0.00 | 63 | 990.8 |
| 20260830171210 | 83 | 261 | 4.0 | 7.0 | 0.00 | 0.00 | 0.00 | 62 | 990.8 |
| 20260830170311 | 83 | 250 | 2.0 | 9.0 | 0.00 | 0.00 | 0.00 | 61 | 990.9 |
| 20260830165410 | 83 | 270 | 4.0 | 9.0 | 0.00 | 0.00 | 0.00 | 59 | 991.0 |
| 20260830164510 | 84 | 270 | 3.0 | 6.0 | 0.00 | 0.00 | 0.00 | 59 | 991.0 |
| 20260830162711 | 84 | 270 | 4.0 | 9.0 | 0.00 | 0.00 | 0.00 | 57 | 991.0 |
| 20260830161811 | 85 | 270 | 3.0 | 8.0 | 0.00 | 0.00 | 0.00 | 57 | 991.1 |
| 20260830160010 | 87 | 275 | 3.0 | 7.0 | 0.00 | 0.00 | 0.00 | 50 | 991.1 |
| 20260830155111 | 87 | 99 | 2.0 | 8.0 | 0.00 | 0.00 | 0.00 | 51 | 990.9 |
| 20260830154211 | 87 | 113 | 3.0 | 7.0 | 0.00 | 0.00 | 0.00 | 50 | 991.0 |
| 20260830152411 | 88 | 159 | 4.0 | 6.0 | 0.00 | 0.00 | 0.00 | 48 | 991.0 |
| 20260830151511 | 89 | 278 | 2.0 | 8.0 | 0.00 | 0.00 | 0.00 | 47 | 991.0 |
| 20260830150610 | 89 | 255 | 2.0 | 8.0 | 0.00 | 0.00 | 0.00 | 47 | 990.9 |
| 20260830145710 | 90 | 232 | 2.0 | 8.0 | 0.00 | 0.00 | 0.00 | 47 | 990.9 |
| 20260830143910 | 88 | 260 | 4.0 | 8.0 | 0.00 | 0.00 | 0.00 | 46 | 990.9 |
| 20260830141211 | 90 | 114 | 2.0 | 4.0 | 0.00 | 0.00 | 0.00 | 46 | 990.9 |
| 20260830140311 | 90 | 255 | 2.0 | 9.0 | 0.00 | 0.00 | 0.00 | 42 | 991.1 |
| 20260830135410 | 90 | 153 | 2.0 | 7.0 | 0.00 | 0.00 | 0.00 | 40 | 991.0 |
| 20260830134511 | 91 | 117 | 2.0 | 6.0 | 0.00 | 0.00 | 0.00 | 39 | 991.0 |
| 20260830132711 | 89 | 104 | 2.0 | 7.0 | 0.00 | 0.00 | 0.00 | 41 | 991.0 |